Find STARLINK-37714

NORAD ID: 799501217 Int'l Des: 2026-161N Constellation: starlink operational

Current View

Loading 3D Globe...

About STARLINK-37714

STARLINK-37714 (NORAD 799501217) is a starlink constellation satellite launched Jul 14, 2026

About STARLINK-37714

Description loading...

Upcoming Passes

Passes for default location (London). Set your location on the main map for personalized predictions.

Altitude History

Loading altitude history...

Two-Line Element Set

1 99999C 2026161N 26195.69354167 .00549030 00000-0 561020-4 0 1954
2 99999 53.1642 325.2829 0009378 280.8592 102.4245 16.09687348 11
Epoch: Jul 14, 2026 • Age: 6 hours